www.pogodaiklimat.ru

Погода и климат >> Архив погоды >> Гана >> Wa


ПОГОДА в Wa

  • Прогноз погоды в Wa
  • Монитор погоды в Wa
  • Климат города

АРХИВ ПОГОДЫ в Wa

Время (UTC), дата Ветер
(напр.,м/с)
 
Видим.   Явления Облачность Т
(С)
Тd
(С)
f
(%)
Тe
(С)
Тes
(С)
Комфортность P
(гПа)
Po
(гПа)
Тmin
(С)
Tmax
(С)
R
(мм)
R24
(мм)
S
(см)
06 20.04 ЮЗ 1 12 км 9/0
[Ac trans Cs]
+28.0 +23.2 75 +38 +38 очень
душно
1010.3 1010.0 +27.5
09 20.04 ЮЗ 2 12 км 8/0
[Ac trans Ci sp]
+30.5 +23.2 65 +41 +48 опасность
перегрева
1011.1 1011.0
12 20.04 ЮЗ 3 12 км 8/3 450 м
[Cu med, cong Ac trans Cs]
+35.0 +23.5 51 +46 +55 опасность
перегрева
1010.5 1011.0
18 20.04 штиль 0 12 км {гроза} 9/0
[Ac trans]
+32.0 +20.9 52 +39 +39 очень
душно
1007.4 1007.0 +37.7
21 20.04 ЮЗ 2 12 км 9/0
[Cs]
+29.3 +19.7 56 +35 +35 очень
душно
1009.1 1009.0
00 21.04 ЮЗ 2 12 км 6/0
[Cs]
+27.3 +20.5 66 +34 +34 очень
душно
1010.8 1011.0
06 21.04 ЮЗ 3 12 км 9/0
[Ac trans]
+25.0 +20.7 77 +31 +31 очень
душно
1010.4 1010.0 +24.9
09 21.04 З 2 12 км 6/0
[Cs]
+28.0 +20.1 62 +34 +43 очень
душно
1011.5 1012.0
12 21.04 ЮЗ 2 12 км 5/0
[Ac trans Ci sp]
+34.3 +20.0 43 +40 +61 опасность
солнечного
удара
1010.0 1010.0
18 21.04 ЮВ 2 12 км 6/3 480 м
[Cu med, cong Ac trans Cs]
+36.2 +19.7 38 +42 +42 опасность
перегрева
1006.8 1007.0 +37.7
00 22.04 ЮЗ 1 12 км 4/4 360 м
[Sc]
+30.5 +20.6 56 +38 +38 очень
душно
1011.1 1011.0
03 22.04 ЮЗ 1 12 км ясно +28.4 +20.7 63 +35 +35 очень
душно
1009.2 1009.0
06 22.04 З 1 12 км 3/0
[Ci sp]
+26.9 +20.8 69 +34 +34 очень
душно
1010.6 1011.0 +26.3
09 22.04 ЮЗ 2 12 км 4/0
[Ci sp]
+30.0 +21.6 61 +38 +48 очень
душно
1011.6 1012.0
12 22.04 Ю 2 12 км ясно +35.0 +21.9 47 +44 +67 опасность
перегрева
1009.7 1010.0
15 22.04 ЮВ 1 12 км 4/4 480 м
[Cu med, cong]
+38.0 +19.7 35 +43 +52 опасность
перегрева
1006.5 1007.0
18 22.04 Ю 2 12 км {дождь} 8/0
[Ac trans Ci sp]
+32.7 +20.5 49 +40 +40 очень
душно
1007.4 1007.0 +38.2 0.7
00 23.04 ЮЗ 2 12 км 8/4
[Cb calv Ac trans Cs]
+29.5 +19.6 55 +35 +35 очень
душно
1010.3 1010.0
06 23.04 ЮЗ 2 12 км 9/0
[Ac trans Cs]
+26.0 +20.3 71 +32 +32 очень
душно
1011.8 1012.0 +25.5 0.7
09 23.04 ЮЗ 3 12 км 5/0
[Ac lent Ci sp]
+29.0 +22.0 66 +37 +44 очень
душно
1012.7 1013.0
12 23.04 ЮЗ 3 12 км 4/3 450 м
[Cu hum Ac lent]
+34.0 +22.3 51 +43 +56 опасность
перегрева
1010.7 1011.0
15 23.04 ЮЗ 2 12 км 5/4 480 м
[Cu med, cong Ci sp]
+37.0 +21.6 41 +45 +52 опасность
перегрева
1007.1 1007.0
18 23.04 ЮЗ 2 12 км 8/6 480 м
[Cb cap Ci sp]
+36.5 +21.3 41 +44 +44 опасность
перегрева
1007.1 1007.0 +38.0
21 23.04 ЮЗ 1 12 км зарница 9/6 400 м
[Cb cap Ac trans]
+33.0 +21.1 50 +41 +41 опасность
перегрева
1009.6 1010.0
00 24.04 ЮЗ 2 12 км 4/0
[Ac trans]
+30.0 +22.4 64 +39 +39 очень
душно
1010.5 1011.0
03 24.04 ЮЗ 1 12 км ясно +28.0 +22.4 72 +37 +37 очень
душно
1009.7 1010.0
06 24.04 ЮЗ 2 12 км 3/0
[Ci sp]
+27.0 +22.8 78 +36 +36 очень
душно
1011.3 1011.0 +26.5
12 24.04 ЮЗ 2 12 км 3/3 480 м
[Cu med, cong]
+35.2 +23.4 51 +46 +61 опасность
перегрева
1010.4 1010.0
15 24.04 ЮЗ 1 12 км 6/6 400 м
[Cu Sc]
+37.5 +22.5 42 +46 +52 опасность
перегрева
1007.1 1007.0
18 24.04 ЮЗ 2 12 км 4/4 480 м
[Cu med, cong]
+37.5 +20.8 38 +44 +44 опасность
перегрева
1006.6 1007.0 +38.6
21 24.04 ЮЗ 1 12 км 1/0
[Ac trans]
+32.5 +23.7 60 +44 +44 опасность
перегрева
1009.7 1010.0
03 25.04 ЮЗ 1 12 км ясно +29.0 +23.5 72 +39 +39 очень
душно
1008.8 1009.0
06 25.04 ЮЗ 1 12 км 3/0
[Ci sp]
+28.0 +23.5 77 +38 +38 очень
душно
1009.8 1010.0 +27.6
09 25.04 ЮЗ 1 12 км 3/3 450 м
[Cu hum]
+30.8 +24.0 67 +42 +51 опасность
перегрева
1012.4 1012.0
12 25.04 ЮЗ 3 12 км 5/3 450 м
[Cu hum Ac trans]
+35.5 +23.3 49 +46 +57 опасность
перегрева
1010.2 1010.0
21 25.04 СВ 2 8000 м гроза, ливневой дождь 9/8 300 м
[Cb cap Ac As]
+24.0 +22.6 92 +31 +31 очень
душно
1012.7 1013.0
06 26.04 ЮЗ 2 12 км в посл. час дождь 9/8 360 м
[Sc Ac trans]
+25.0 +22.9 88 +33 +33 очень
душно
1011.2 1011.0 +23.0 38
12 26.04 ЮЗ 3 12 км 9/0
[Ac trans Cs]
+30.0 +23.1 67 +40 +53 опасность
солнечного
удара
1011.0 1011.0
15 26.04 ЮЗ 1 12 км 5/1 480 м
[Cu med, cong Ac trans Ci sp]
+34.0 +22.3 51 +43 +53 опасность
перегрева
1008.1 1008.0

 

Местоположение метеостанции Wa (Гана): широта 10.05 долгота -2.50 высота над уровнем моря 323 м.

В архиве по умолчанию представлена погода в Wa за последнюю неделю. Архивные данные за месяц целиком и за предыдущие месяцы, начиная с января 2011 года, Вы можете получить, выбрав интересующий диапазон дат из раскрывающегося списка и нажав кнопку "Ввод!".


*Определитесь, кто Вы:
робот инопланетянин человек

Внимание! Время в таблицах - всемирное. Для получения местного времени необходимо прибавить поправку, которая в Wa равна 1 ч.

Смотрите также архив погоды в соседних городах и на ближайших метеорологических станциях:

Погода в Gaoua (Буркина-Фасо) (81 км)
Погода в Bole (Гана) (113 км)
Погода в Navrongo (Гана) (180 км)
Погода в Tamale (Гана) (191 км)
Погода в Po (Буркина-Фасо) (192 км)
Погода в Boromo (Буркина-Фасо) (195 км)
Погода в Bondoukou (Кот-д'Ивуар) (225 км)
Погода в Bobo-Dioulasso (Буркина-Фасо) (235 км)
Погода в Wenchi (Гана) (260 км)
Погода в Ouagadougou (Буркина-Фасо) (277 км)

Пояснения к столбцам:

Ветер - указаны скорость ветра в м/с - средняя за 10 мин, порывы в срок и между сроками (в фигурных скобках) и направление, откуда дует ветер: С - северный, СВ - северо-восточный, В - восточный, ЮВ - юго-восточный, Ю - южный, ЮЗ - юго-западный, З - западный, СЗ - северо-западный.
Видимость - горизонтальная дальность видимости в метрах или километрах. При видимости от 1 до 10 км при отсутствии осадков обычно наблюдается дымка, при ухудшении видимости до 1 км и менее - туман. В сухую погоду видимость может ухудшаться дымом, пылью или мглою.
Явления - указаны атмосферные явления, наблюдавшиеся в срок или в последний час перед сроком; фигурными скобками обозначены явления, наблюдавшиеся между сроками (за 1-3 часа до срока); квадратными скобками обозначены град или гололедные отложения с указанием их диаметра в мм.
Облачность - указаны через наклонную черту общая и нижняя облачность в баллах и высота нижней границы облаков в метрах; квадратными скобками обозначены формы облаков: Ci - перистые, Cs - перисто-слоистые, Cc - перисто-кучевые, Ac - высококучевые, As - высокослоистые, Sc - слоисто-кучевые, Ns - слоисто-дождевые, Cu - кучевые, Cb - кучево-дождевые. Подробнее классификацию облаков см. в Атласе облаков (PDF).
T - Температура воздуха - температура, измеренная на высоте 2 м над землей.
Td - Температура точки росы - температура, при понижении до которой содержащийся в воздухе водяной пар достигнет насыщения.
f - Относительная влажность воздуха - влажноcть воздуха, измеренная на высоте 2 м над землей.
Te - Эффективная температура - температура, которую ощущает одетый по сезону человек в тени. Характеристика душности погоды. При расчете учитывается влияние влажности воздуха и скорости ветра на теплоощущения человека.
Tes - Эффективная температура на солнце - температура, которую ощущает человек, с поправкой на солнечный нагрев. Характеристика знойности погоды. Зависит от высоты солнца над горизонтом, облачности и скорости ветра. Ночью, в пасмурную погоду, а также при ветре 12 м/с и более поправка равна нулю.
P - Атмосферное давление - приведенное к уровню моря атмосферное давление.
Po - Атмосферное давление - измеренное на уровне метеостанции атмосферное давление.
Tmin - Минимальная температура - минимум температуры воздуха на высоте 2 м над землей.
Tmax - Максимальная температура - максимум температуры воздуха на высоте 2 м над землей.
R - Количество осадков - Количество выпавших осадков за период времени, мм. При наведении курсора мыши на число - период времени, за который выпало указанное количество осадков.
R24 - Количество осадков - Количество выпавших осадков за 24 часа, мм.
S - Снежный покров - Высота снежного покрова, см. При наведении курсора мыши на число - состояние снежного покрова и степень покрытия местности в баллах.